User: anonymous   Login
Location: Unspecified
(0.0000°N, 0.0000°E)
Time: 13:56:13
(UTC+00:00)
Language:

Courier 1B - Orbit

View from above orbital plane
View from above orbital plane
View from above satellite
View from above satellite

Ground track
Ground track

The orbit data is extracted from the following two-line orbital elements,

1    58U 60013A   17177.53352545 +.00000091 +00000-0 +13219-4 0  9998
2    58 028.3254 208.8063 0165079 070.6202 291.2108 13.46309665792566
Epoch (UTC): 26 June 2017 12:48:16
Eccentricity: 0.0165079
inclination: 28.3254°
perigee height: 962 km
apogee height: 1209 km
right ascension of ascending node: 208.8063°
argument of perigee: 70.6202°
revolutions per day: 13.46309665
mean anomaly at epoch: 291.2108°
orbit number at epoch: 79256

The dashed part of the orbit path shows where the satellite is in the earth's shadow,  

DLR